Flag for Canada Weather past 2 weeks in Kuujjuaq, Quebec, Canada

-8 °F

Passing clouds.

Feels Like: -26 °F
Forecast: -13 / 1 °F
Wind: 10 mph from Northwest

Location: Kuujjuaq

Current Time: Nov 29, 2015 at 12:34:29 AM

Latest Report: Nov 29, 2015 at 12:00 AM

Visibility: 15 mi

Pressure: 30.01 "Hg

Humidity: 70%

Dew point: -15 °F

Location of KuujjuaqLocation

Historic Weather in Kuujjuaq — Graph


Kuujjuaq temperature yesterday

Maximum temperature yesterday: 7 °F (at 11:00 AM)
Minimum temperature yesterday: -9 °F (at 11:00 PM)
Average temperature yesterday: 2 °F

Past Weeks' High & Low Weather Summary

High41 °F (Nov 20, 9:00 AM)100% (Nov 15, 8:01 PM)30.52 "Hg (Nov 15, 8:01 PM)
Low-9 °F (Nov 28, 11:00 PM)55% (Nov 21, 2:00 PM)29.61 "Hg (Nov 19, 10:00 AM)
Average20 °F82%29.98 "Hg
* Reported Nov 13 11:00 PM — Nov 28 11:00 PM, Kuujjuaq, Weather by CustomWeather, © 2015

Note: Actual official high and low records may vary slightly from our data, if they occured in-between our weather recording intervals... More about our weather records


Kuujjuaq weather history for previous 24 hours

Time TempWeatherWind HumidityBarometerVisibility
11:00 PM
Sat, Nov 28
-9 °FPassing clouds.No wind77%29.99 "Hg15 mi
10:00 PM-8 °FPassing clouds.7 mph77%29.97 "Hg15 mi
9:00 PM-6 °FPassing clouds.10 mph77%29.96 "Hg15 mi
8:00 PM-4 °FPassing clouds.10 mph77%29.95 "Hg15 mi
6:00 PM0 °FLight snow. Passing clouds.7 mph78%29.91 "Hg15 mi
5:00 PM0 °FPassing clouds.13 mph78%29.88 "Hg15 mi
4:00 PM0 °FPassing clouds.15 mph84%29.86 "Hg15 mi
3:00 PM3 °FLight snow. Partly cloudy.12 mph78%29.83 "Hg8 mi
2:00 PM5 °FLight snow. Broken clouds.12 mph78%29.81 "Hg4 mi
1:50 PM5 °FLight snow. Broken clouds.13 mph85%29.81 "Hg3 mi
1:00 PM7 °FLight snow. Overcast.10 mph78%29.80 "Hg2 mi
12:00 PM5 °FLight snow. Mostly cloudy.9 mph85%29.80 "Hg1 mi
11:00 AM7 °FLight snow. Partly sunny.7 mph85%29.80 "Hg1 mi
10:00 AM5 °FLight snow. Partly sunny.6 mph85%29.82 "Hg2 mi
9:00 AM3 °FLight snow. Partly sunny.6 mph85%29.83 "Hg3 mi
8:00 AM3 °FLight snow. Broken clouds.3 mph85%29.86 "Hg4 mi
7:45 AM3 °FLight snow. Passing clouds.3 mph92%29.87 "Hg3 mi
7:00 AM5 °FSnow flurries. Passing clouds.2 mph85%29.89 "Hg2 mi
6:00 AM5 °FSnow flurries. Overcast.3 mph85%29.92 "Hg2 mi
5:00 AM3 °FLight snow. Overcast.6 mph85%29.94 "Hg2 mi
4:00 AM1 °FSnow flurries. Partly cloudy.6 mph85%29.97 "Hg15 mi
3:00 AM1 °FSnow flurries. Passing clouds.9 mph85%29.99 "Hg15 mi
2:00 AM1 °FSnow flurries. Passing clouds.9 mph85%30.01 "Hg15 mi
1:00 AM3 °FSnow flurries. Passing clouds.7 mph85%30.02 "Hg15 mi
12:00 AM3 °FSnow flurries. Passing clouds.7 mph78%30.03 "Hg15 mi
Weather by CustomWeather, © 2015

See weather overviewHow to use our weather pages